Weather in Zhytkovichy

Belarus     52˚13′00″N   27˚51′17″E
temp.,
°C
wind,
m/s
gust,
m/s
humid.,
%
clouds,
%
prec.,
mm/h
press.,
hPa
HPBL,
m
1 december, tue
tue100:00−3˚sw249454 0.0 1028121
03:00−3˚sw249665 0.1 1028172
06:00−3˚ssw129791 0.0 102971
09:00−4˚ssw129656 0.0 102921
12:00−1˚sse12820 0.0 1030268
15:00ese13781 0.0 1030491
18:00−3˚e22906 0.0 103027
21:00−4˚ene239216 0.0 103171
2 december, wed
wed200:00−4˚ne249341 0.0 103198
03:00−4˚ne259233 0.0 1031137
06:00−2˚ne369163 0.0 1030232
09:00−1˚ene379481 0.1 1030362
12:00ene369294 0.1 1029494
15:00e358597 0.3 1028515
18:00−2˚e379694 0.1 1027336
21:00−2˚ese369692 0.2 1027337
3 december, thu
thu300:00−2˚ese369679 0.1 1026324
03:00−2˚ese369684 0.2 1026259
06:00−2˚ese379490 0.1 1025322
09:00−2˚ese389691 0.3 1025386
12:00se4790100 0.2 1024536
15:00+1˚se4893100 0.3 1023555
18:00+1˚se499499 0.0 1022580
21:00+1˚se5109299 0.1 1022578
4 december, fri
fri400:00+1˚se4109099 0.0 1021787
03:00se5129097 0.0 1020618
06:00+1˚se51189100 0.0 1019536
09:00+2˚se61390100 0.0 1018581
12:00+3˚se61483100 0.0 1018698
15:00+4˚se6147979 0.0 1017875
18:00+4˚se7158293 0.0 1017778
21:00+3˚se7158796 0.0 1018753
5 december, sat
sat500:00+3˚se71487100 0.0 1018613
03:00+4˚se71487100 0.0 1018622
06:00+4˚se61488100 0.1 1017690
09:00+4˚se61389100 0.2 1018768
12:00+4˚se61490100 0.4 1018677
15:00+5˚se61388100 0.6 1018627
18:00+5˚se61288100 0.0 1019598
21:00+4˚se71387100 0.0 1019657